[[{"header":{"parameterUnit":"m.s-1","parameterCategory":1,"la1":30.2991,"la2":30.254,"lo1":-89.0895,"lo2":-89.0444,"dy":0.0017,"dx":0.0017,"nx":28,"ny":28,"refTime":"2025-04-20T21:00:00:Z","depth":0,"parameterNumber":2,"parameterNumberName":"U-component_of_WINDS"},"data":[0,0,0,0,0,0,0,0,0,0,0,0,0,0,0,0,0,0,0,0,0,0,0,0,0,0,0,0,0,0,0,0,0,0,0,0,0,0,0,0,0,0,0,0,0,0,0,0,0,0,0,0,0,0,0,0,0,0,-3.5267,-3.5267,0,-3.5331,-3.5332,-3.5333,-3.5342,-3.5341,-3.534,-3.534,-3.5407,-3.5409,-3.5412,0,0,0,0,0,0,0,0,0,0,0,0,0,-3.5154,-3.5156,-3.5267,-3.5268,-3.5268,-3.5331,-3.5332,-3.5333,-3.5342,-3.5341,-3.534,-3.5339,-3.5406,-3.5409,-3.5412,0,0,0,0,0,0,0,0,0,0,0,0,0,-3.5209,-3.5157,-3.5267,-3.528,-3.5282,-3.5331,-3.5332,-3.5333,-3.5342,-3.5341,-3.534,-3.5339,-3.5405,-3.5409,-3.5412,-3.5453,0,0,-3.5423,-3.5425,0,0,0,0,0,0,0,0,-3.5206,-3.5213,-3.5277,-3.5279,-3.5281,-3.5327,-3.5317,-3.5373,-3.5342,-3.5319,-3.534,-3.5339,-3.5381,-3.5387,-3.5401,-3.5456,-3.5459,-3.5424,-3.5426,-3.5427,-3.5428,0,0,0,0,0,0,0,-3.5202,-3.5211,-3.5292,-3.5278,-3.5281,-3.5284,-3.5291,-3.5328,-3.5355,-3.5321,-3.5322,-3.5329,-3.5382,-3.5398,-3.5403,-3.546,-3.5423,-3.5427,-3.5429,-3.543,-3.5553,-3.5554,0,0,0,0,0,0,-3.5196,-3.5207,-3.529,-3.5294,-3.5241,-3.5287,-3.5295,-3.5314,-3.5354,-3.536,-3.533,-3.5329,-3.5392,-3.5399,-3.5405,-3.5456,-3.5427,-3.543,-3.5433,-3.5552,-3.5554,-3.5555,0,0,0,0,0,0,-3.5193,-3.5203,-3.5288,-3.5251,-3.5262,-3.529,-3.5311,-3.5315,-3.5331,-3.5361,-3.5366,-3.534,-3.5392,-3.54,-3.5441,-3.5458,-3.5432,-3.5435,-3.5551,-3.5553,-3.5554,-3.5557,0,0,0,0,0,0,-3.519,-3.5202,-3.5216,-3.5251,-3.5264,-3.5322,-3.5312,-3.5317,-3.5337,-3.5336,-3.5372,-3.5377,-3.5391,-3.5436,-3.5445,-3.5463,-3.5438,-3.5549,-3.5552,-3.5554,-3.5555,-3.5558,-3.5561,0,0,0,0,0,-3.5186,-3.5214,-3.5217,-3.5227,-3.5283,-3.5322,-3.533,-3.5345,-3.5338,-3.5353,-3.5374,-3.5376,-3.5455,-3.544,-3.545,-3.5469,-3.5548,-3.5551,-3.5553,-3.5554,-3.5558,-3.5561,0,0,0,0,0,0,-3.518,-3.5219,-3.5222,-3.5263,-3.529,-3.5324,-3.5343,-3.5349,-3.5378,-3.5376,-3.5395,-3.5403,-3.5444,-3.5461,-3.5443,-3.5512,-3.5501,-3.5506,-3.5498,-3.5502,-3.5505,-3.5499,-3.5441,0,0,0,0,0,-3.5184,-3.5212,-3.5245,-3.5278,-3.5291,-3.5315,-3.5333,-3.5343,-3.5371,-3.5382,-3.5405,-3.5433,-3.5465,-3.5485,-3.5515,-3.5559,-3.5567,-3.5577,-3.558,-3.5582,-3.5586,-3.5612,-3.5617,-3.5563,-3.5563,-3.5563,0,0,-3.5192,-3.5216,-3.5233,-3.5278,-3.5299,-3.5329,-3.5324,-3.5356,-3.5378,-3.5387,-3.5427,-3.5446,-3.5478,-3.5521,-3.5541,-3.5537,-3.5603,-3.5586,-3.5587,-3.5589,-3.5615,-3.562,-3.5624,-3.5565,-3.5565,-3.5564,0,0,-3.522,-3.5242,-3.5272,-3.5294,-3.5327,-3.5344,-3.5351,-3.5386,-3.5398,-3.5439,-3.5446,-3.5475,-3.5528,-3.5551,-3.557,-3.5611,-3.5615,-3.5621,-3.5635,-3.566,-3.5665,-3.5668,-3.5683,-3.5688,-3.5625,-3.5625,-3.5625,0,-3.5225,-3.527,-3.5287,-3.5319,-3.5339,-3.5349,-3.5381,-3.5402,-3.5443,-3.5457,-3.5452,-3.552,-3.5543,-3.5592,-3.5602,-3.5617,-3.5627,-3.5616,-3.5662,-3.5666,-3.567,-3.5685,-3.569,-3.5625,-3.5625,-3.5625,-3.5625,0,-3.5275,-3.5306,-3.5327,-3.5367,-3.5389,-3.5421,-3.5444,-3.5465,-3.5474,-3.5492,-3.5534,-3.5562,-3.5599,-3.5612,-3.5621,-3.5663,-3.566,-3.5659,-3.5648,-3.5676,-3.5689,-3.5695,-3.5626,-3.5626,-3.5626,-3.5625,0,0,-3.5299,-3.535,-3.5357,-3.5376,-3.5415,-3.544,-3.5473,-3.551,-3.5528,-3.5557,-3.5586,-3.5632,-3.5632,-3.5654,-3.5666,-3.5688,-3.572,-3.5684,-3.5685,-3.5689,-3.5769,-3.5769,-3.5775,-3.5724,-3.5725,-3.5726,-3.5766,0,-3.5332,-3.539,-3.5408,-3.5457,-3.5487,-3.5499,-3.5528,-3.5556,-3.5574,-3.5603,-3.5623,-3.5656,-3.5653,-3.5666,-3.5689,-3.5711,-3.5736,-3.5709,-3.5751,-3.5752,-3.5741,-3.5782,-3.5782,-3.5819,-3.5772,-3.5773,-3.5773,0,-3.5377,-3.5408,-3.546,-3.5497,-3.551,-3.5535,-3.5571,-3.5599,-3.5631,-3.5643,-3.5669,-3.568,-3.5716,-3.5706,-3.5757,-3.5738,-3.5757,-3.5771,-3.5773,-3.5776,-3.5763,-3.5786,-3.5831,-3.5836,-3.5782,-3.5782,-3.5781,0,-3.539,-3.5444,-3.5482,-3.5499,-3.5542,-3.556,-3.558,-3.5612,-3.5633,-3.5665,-3.5679,-3.5716,-3.5735,-3.5764,-3.5785,-3.5775,-3.5835,-3.5825,-3.5846,-3.5845,-3.5856,-3.5855,-3.5904,-3.587,-3.587,-3.587,-3.587,0,-3.5424,-3.5455,-3.5489,-3.5512,-3.5549,-3.557,-3.5606,-3.5626,-3.5655,-3.5683,-3.5697,-3.5724,-3.5751,-3.5782,-3.5799,-3.5839,-3.5848,-3.5859,-3.5863,-3.5857,-3.5856,-3.5869,-3.5867,-3.5872,-3.5871,-3.5871,-3.5871,0,-3.5443,-3.5467,-3.5509,-3.5548,-3.5559,-3.5584,-3.5618,-3.5642,-3.5662,-3.5698,-3.5708,-3.5739,-3.5777,-3.5801,-3.5849,-3.5861,-3.5905,-3.5909,-3.5893,-3.5895,-3.5914,-3.5912,-3.5972,-3.5981,-3.5942,-3.5942,-3.5943,0,-3.5462,-3.5487,-3.5529,-3.5549,-3.5568,-3.5601,-3.5623,-3.5646,-3.5669,-3.571,-3.5729,-3.5768,-3.5799,-3.5859,-3.5887,-3.5924,-3.5928,-3.5947,-3.5934,-3.5928,-3.5928,-3.5926,-3.5929,-3.5948,-3.5949,-3.5949,-3.5949,0,-3.5495,-3.5506,-3.5537,-3.5573,-3.56,-3.5629,-3.5659,-3.5675,-3.5704,-3.5729,-3.5768,-3.5792,-3.5842,-3.588,-3.592,-3.5942,-3.5951,-3.5954,-3.596,-3.5954,-3.5944,-3.5949,-3.5898,-3.5951,-3.5951,-3.5951,-3.5951,-3.5951,-3.5515,-3.5538,-3.5571,-3.5606,-3.5631,-3.5659,-3.5684,-3.5708,-3.574,-3.5782,-3.5794,-3.5835,-3.5869,-3.5924,-3.5947,-3.5979,-3.5977,-3.5987,-3.5989,-3.5991,-3.5991,-3.594,-3.5987,-3.5987,-3.5987,-3.5987,-3.5987,0,-3.5548,-3.5571,-3.5603,-3.5644,-3.5672,-3.5679,-3.5713,-3.5736,-3.5771,-3.5802,-3.5834,-3.5879,-3.5917,-3.5949,-3.5988,-3.6009,-3.6014,-3.6018,-3.6016,-3.6021,-3.5991,-3.5981,-3.6013,-3.6013,-3.6013,-3.6013,-3.6013,-3.6013,-3.5568,-3.5607,-3.5623,-3.5676,-3.5699,-3.5738,-3.5757,-3.5784,-3.5809,-3.5859,-3.589,-3.5911,-3.5943,-3.5985,-3.6021,-3.603,-3.6043,-3.6047,-3.6056,-3.6026,-3.6023,-3.602,-3.6011,-3.605,-3.605,-3.6084,-3.6084,-3.6085]},{"header":{"parameterUnit":"m.s-1","parameterCategory":1,"la1":30.2991,"la2":30.254,"lo1":-89.0895,"lo2":-89.0444,"dy":0.0017,"dx":0.0017,"nx":28,"ny":28,"refTime":"2025-04-20T21:00:00:Z","depth":0,"parameterNumber":3,"parameterNumberName":"V-component_of_WINDS"},"data":[0,0,0,0,0,0,0,0,0,0,0,0,0,0,0,0,0,0,0,0,0,0,0,0,0,0,0,0,0,0,0,0,0,0,0,0,0,0,0,0,0,0,0,0,0,0,0,0,0,0,0,0,0,0,0,0,0,0,4.675,4.675,0,4.676,4.6761,4.6761,4.678,4.6781,4.6781,4.6781,4.6788,4.6787,4.6787,0,0,0,0,0,0,0,0,0,0,0,0,0,4.6745,4.6745,4.675,4.675,4.675,4.676,4.6761,4.6761,4.678,4.6781,4.6781,4.6782,4.6788,4.6787,4.6787,0,0,0,0,0,0,0,0,0,0,0,0,0,4.675,4.6745,4.675,4.6761,4.6763,4.676,4.6761,4.6761,4.678,4.6781,4.6781,4.6782,4.6788,4.6787,4.6787,4.6773,0,0,4.6786,4.6786,0,0,0,0,0,0,0,0,4.675,4.675,4.676,4.6761,4.6762,4.677,4.6761,4.6765,4.678,4.6773,4.6781,4.6782,4.6781,4.6781,4.6782,4.6774,4.6774,4.6786,4.6786,4.6786,4.6786,0,0,0,0,0,0,0,4.675,4.675,4.6754,4.676,4.6761,4.6765,4.6767,4.6762,4.6773,4.6774,4.6775,4.6777,4.6782,4.6782,4.6782,4.6774,4.6786,4.6786,4.6786,4.6786,4.6757,4.6757,0,0,0,0,0,0,4.6748,4.675,4.6754,4.6754,4.6757,4.6765,4.6766,4.6767,4.6774,4.6775,4.6776,4.6777,4.6782,4.6782,4.6782,4.6768,4.6786,4.6786,4.6785,4.6758,4.6757,4.6757,0,0,0,0,0,0,4.6748,4.6748,4.6753,4.6753,4.6754,4.6764,4.6764,4.6766,4.6767,4.6775,4.6777,4.6774,4.6783,4.6783,4.6776,4.6769,4.6785,4.6785,4.6759,4.6758,4.6757,4.6739,0,0,0,0,0,0,4.6748,4.6748,4.6743,4.6752,4.6754,4.6748,4.6764,4.6766,4.6767,4.6769,4.6774,4.6776,4.6783,4.6777,4.6776,4.6769,4.6785,4.6759,4.6758,4.6757,4.674,4.6738,4.6735,0,0,0,0,0,4.6747,4.6736,4.6743,4.6743,4.6748,4.6747,4.6748,4.6758,4.6766,4.6761,4.6767,4.6776,4.677,4.6776,4.6775,4.6768,4.676,4.6759,4.6757,4.6742,4.6738,4.6736,0,0,0,0,0,0,4.6724,4.6738,4.6745,4.6737,4.6741,4.6751,4.6745,4.6754,4.6755,4.6756,4.6767,4.6768,4.6761,4.6763,4.677,4.6756,4.6766,4.6765,4.6754,4.6751,4.6749,4.6749,4.6785,0,0,0,0,0,4.6719,4.6718,4.6729,4.6721,4.6723,4.6734,4.6734,4.6741,4.6745,4.6747,4.6752,4.6755,4.6754,4.6752,4.6752,4.6741,4.6743,4.6735,4.6733,4.6731,4.673,4.6726,4.6723,4.6753,4.6753,4.6753,0,0,4.6706,4.6714,4.6712,4.6717,4.6721,4.672,4.6735,4.6732,4.6731,4.6746,4.6741,4.6745,4.6749,4.6741,4.6737,4.6743,4.6722,4.6729,4.6728,4.6727,4.6724,4.6721,4.6719,4.6752,4.6752,4.6752,0,0,4.6683,4.6689,4.6684,4.6688,4.6695,4.6702,4.6701,4.671,4.6714,4.6709,4.6721,4.6719,4.6717,4.672,4.6721,4.6701,4.6709,4.67,4.6688,4.6684,4.6681,4.6679,4.6674,4.6671,4.6699,4.6699,4.6699,0,4.6667,4.6667,4.6679,4.6677,4.6679,4.6694,4.6689,4.6692,4.6697,4.6698,4.6705,4.6704,4.6707,4.6701,4.6696,4.6696,4.6695,4.67,4.6681,4.6679,4.6677,4.6672,4.667,4.6698,4.6698,4.6698,4.6698,0,4.6647,4.6646,4.6641,4.6649,4.665,4.6646,4.6658,4.6657,4.6665,4.6672,4.6668,4.6673,4.6674,4.6673,4.6679,4.6668,4.6672,4.6679,4.669,4.6673,4.6669,4.6666,4.6697,4.6697,4.6697,4.6697,0,0,4.6608,4.6625,4.6623,4.6627,4.6637,4.6636,4.6633,4.6637,4.6637,4.664,4.6638,4.6637,4.6645,4.6646,4.6653,4.665,4.6636,4.6658,4.6658,4.6655,4.6625,4.662,4.6617,4.6642,4.6641,4.6641,4.6625,0,4.6588,4.6586,4.6598,4.6592,4.6592,4.6607,4.6605,4.661,4.6617,4.6617,4.6624,4.6624,4.6633,4.6635,4.6632,4.6638,4.663,4.6639,4.664,4.6639,4.6639,4.6615,4.6609,4.6594,4.6623,4.6623,4.6623,0,4.6564,4.6569,4.6564,4.6576,4.6576,4.6574,4.6579,4.658,4.6586,4.6591,4.6594,4.6603,4.6601,4.6611,4.6608,4.6614,4.6615,4.6618,4.6618,4.6619,4.663,4.6615,4.6589,4.6587,4.6619,4.662,4.662,0,4.6539,4.6544,4.6542,4.6545,4.6558,4.6557,4.6562,4.6569,4.6571,4.6575,4.6577,4.6579,4.6581,4.6583,4.6593,4.6599,4.6589,4.66,4.6593,4.6593,4.659,4.6591,4.6564,4.659,4.659,4.659,4.659,0,4.6515,4.6512,4.6531,4.653,4.6526,4.654,4.6536,4.6543,4.6549,4.655,4.6562,4.6561,4.6574,4.6575,4.6582,4.658,4.658,4.6584,4.6586,4.6583,4.6583,4.6584,4.6586,4.6589,4.6589,4.6589,4.6589,0,4.6486,4.6499,4.6498,4.6512,4.6515,4.6512,4.6524,4.6523,4.6531,4.6531,4.6532,4.6544,4.6546,4.6556,4.6559,4.6564,4.6559,4.6563,4.6558,4.6559,4.6552,4.6553,4.6527,4.6524,4.655,4.655,4.655,0,4.6471,4.6469,4.6483,4.6485,4.6491,4.6493,4.6496,4.651,4.6512,4.6521,4.6519,4.6522,4.6526,4.6528,4.6536,4.654,4.6544,4.6534,4.6544,4.6542,4.6545,4.6545,4.6546,4.6532,4.6532,4.6532,4.6531,0,4.6443,4.645,4.6454,4.6461,4.6465,4.647,4.6477,4.6477,4.6492,4.6494,4.6498,4.65,4.6506,4.6509,4.6514,4.6518,4.6528,4.6528,4.6527,4.6525,4.6522,4.6525,4.6553,4.6529,4.6529,4.6529,4.6529,4.653,4.6421,4.6421,4.6432,4.6436,4.6443,4.6449,4.645,4.6459,4.6463,4.6469,4.6477,4.6479,4.6487,4.6495,4.6499,4.6501,4.6506,4.6504,4.6504,4.6503,4.6502,4.6522,4.6502,4.6502,4.6502,4.6502,4.6502,0,4.6394,4.6403,4.6407,4.6417,4.6421,4.6431,4.6439,4.6441,4.6444,4.6451,4.6456,4.646,4.6464,4.6473,4.6478,4.6478,4.6482,4.6479,4.6479,4.648,4.6497,4.6498,4.6475,4.6475,4.6475,4.6475,4.6475,4.6475,4.6381,4.6382,4.6391,4.6395,4.6403,4.6407,4.6411,4.6417,4.6423,4.6428,4.6432,4.6439,4.6447,4.6453,4.6457,4.646,4.6461,4.6457,4.6461,4.6476,4.6479,4.6481,4.6482,4.6457,4.6457,4.6444,4.6444,4.6444]}]]